| time (UTC) | temp F | wind direction | speed MPH | gust MPH | rain 1hr in | rain 24hr in | rain mn in | humidity % | barometer mb |
| 20260505213021 | 58 | 301 | 4.0 | 6.0 | 0.00 | 0.02 | 0.02 | 31 | 1010.2 |
| 20260505212517 | 58 | 324 | 2.0 | 3.0 | 0.00 | 0.02 | 0.02 | 30 | 1010.2 |
| 20260505212015 | 58 | 326 | 4.0 | 6.0 | 0.00 | 0.02 | 0.02 | 31 | 1010.6 |
| 20260505211512 | 58 | 293 | 5.0 | 7.0 | 0.00 | 0.02 | 0.02 | 30 | 1010.3 |
| 20260505211008 | 59 | 341 | 7.0 | 8.0 | 0.00 | 0.02 | 0.02 | 30 | 1010.2 |
| 20260505210505 | 58 | 296 | 1.0 | 1.0 | 0.00 | 0.02 | 0.02 | 34 | 1010.1 |
| 20260505210002 | 58 | 345 | 5.0 | 8.0 | 0.00 | 0.02 | 0.02 | 31 | 1010.3 |
| 20260505205500 | 59 | 329 | 5.0 | 6.0 | 0.00 | 0.02 | 0.02 | 32 | 1010.2 |
| 20260505204956 | 59 | 342 | 8.0 | 11.0 | 0.00 | 0.02 | 0.02 | 31 | 1010.5 |
| 20260505204455 | 59 | 324 | 4.0 | 6.0 | 0.00 | 0.02 | 0.02 | 29 | 1010.1 |
| 20260505203952 | 59 | 307 | 7.0 | 10.0 | 0.00 | 0.02 | 0.02 | 31 | 1010.2 |
| 20260505203448 | 59 | 298 | 6.0 | 9.0 | 0.00 | 0.02 | 0.02 | 29 | 1010.4 |
| 20260505202944 | 60 | 314 | 4.0 | 5.0 | 0.00 | 0.02 | 0.02 | 30 | 1010.3 |
| 20260505202441 | 60 | 229 | 3.0 | 7.0 | 0.00 | 0.02 | 0.02 | 31 | 1010.4 |
| 20260505201937 | 60 | 311 | 4.0 | 5.0 | 0.00 | 0.02 | 0.02 | 29 | 1010.7 |
| 20260505201434 | 60 | 329 | 5.0 | 7.0 | 0.00 | 0.02 | 0.02 | 31 | 1010.2 |
| 20260505200932 | 59 | 256 | 2.0 | 2.0 | 0.00 | 0.02 | 0.02 | 33 | 1010.5 |
| 20260505200430 | 60 | 281 | 7.0 | 9.0 | 0.00 | 0.02 | 0.02 | 30 | 1010.5 |
| 20260505195925 | 60 | 326 | 5.0 | 6.0 | 0.00 | 0.02 | 0.02 | 31 | 1010.5 |
| 20260505195422 | 60 | 282 | 7.0 | 8.0 | 0.00 | 0.02 | 0.02 | 30 | 1010.4 |
| 20260505194920 | 61 | 354 | 8.0 | 10.0 | 0.00 | 0.02 | 0.02 | 29 | 1010.7 |
| 20260505194417 | 60 | 314 | 1.0 | 1.0 | 0.00 | 0.02 | 0.02 | 30 | 1010.4 |
| 20260505193917 | 61 | 233 | 6.0 | 8.0 | 0.00 | 0.02 | 0.02 | 33 | 1010.6 |
| 20260505193415 | 60 | 326 | 5.0 | 9.0 | 0.00 | 0.02 | 0.02 | 31 | 1010.7 |
| 20260505192913 | 59 | 303 | 4.0 | 5.0 | 0.00 | 0.02 | 0.02 | 32 | 1010.3 |
| 20260505192410 | 59 | 235 | 8.0 | 9.0 | 0.00 | 0.02 | 0.02 | 31 | 1010.3 |
| 20260505191908 | 61 | 252 | 3.0 | 3.0 | 0.00 | 0.02 | 0.02 | 33 | 1010.8 |
| 20260505191406 | 59 | 252 | 3.0 | 6.0 | 0.00 | 0.02 | 0.02 | 34 | 1010.6 |
| 20260505190903 | 60 | 317 | 6.0 | 14.0 | 0.00 | 0.02 | 0.02 | 32 | 1010.8 |
| 20260505190358 | 60 | 287 | 3.0 | 3.0 | 0.00 | 0.02 | 0.02 | 35 | 1010.7 |
| 20260505185853 | 59 | 320 | 3.0 | 3.0 | 0.00 | 0.02 | 0.02 | 35 | 1010.7 |
| 20260505185350 | 60 | 324 | 5.0 | 8.0 | 0.00 | 0.02 | 0.02 | 33 | 1010.9 |
| 20260505184847 | 59 | 333 | 2.0 | 2.0 | 0.00 | 0.02 | 0.02 | 37 | 1010.8 |
| 20260505184344 | 59 | 276 | 2.0 | 3.0 | 0.00 | 0.02 | 0.02 | 37 | 1010.6 |
| 20260505183841 | 59 | 248 | 4.0 | 6.0 | 0.00 | 0.02 | 0.02 | 33 | 1010.7 |
| 20260505183337 | 59 | 247 | 8.0 | 11.0 | 0.00 | 0.02 | 0.02 | 33 | 1010.8 |
| 20260505182834 | 58 | 238 | 5.0 | 6.0 | 0.00 | 0.02 | 0.02 | 34 | 1010.9 |
| 20260505182331 | 58 | 325 | 3.0 | 5.0 | 0.00 | 0.02 | 0.02 | 33 | 1010.8 |
| 20260505181828 | 59 | 251 | 4.0 | 6.0 | 0.00 | 0.02 | 0.02 | 35 | 1011.2 |
| 20260505181325 | 58 | 247 | 3.0 | 3.0 | 0.00 | 0.02 | 0.02 | 36 | 1011.0 |
| 20260505180822 | 57 | 324 | 0.0 | 1.0 | 0.00 | 0.02 | 0.02 | 35 | 1011.3 |
| 20260505180318 | 58 | 273 | 3.0 | 5.0 | 0.00 | 0.02 | 0.02 | 37 | 1011.4 |
| 20260505175815 | 57 | 259 | 2.0 | 2.0 | 0.00 | 0.02 | 0.02 | 40 | 1011.4 |
| 20260505175311 | 58 | 323 | 5.0 | 7.0 | 0.00 | 0.02 | 0.02 | 37 | 1011.4 |
| 20260505174808 | 57 | 330 | 3.0 | 5.0 | 0.00 | 0.02 | 0.02 | 37 | 1011.5 |
| 20260505174305 | 58 | 284 | 1.0 | 2.0 | 0.00 | 0.02 | 0.02 | 36 | 1011.3 |
| 20260505173801 | 59 | 314 | 3.0 | 3.0 | 0.00 | 0.02 | 0.02 | 34 | 1011.5 |
| 20260505173257 | 59 | 316 | 2.0 | 2.0 | 0.00 | 0.02 | 0.02 | 38 | 1011.6 |
| 20260505172754 | 58 | 348 | 1.0 | 1.0 | 0.00 | 0.02 | 0.02 | 37 | 1011.5 |
| 20260505172252 | 57 | 294 | 3.0 | 3.0 | 0.00 | 0.02 | 0.02 | 37 | 1011.9 |
| 20260505171747 | 56 | 312 | 3.0 | 3.0 | 0.00 | 0.02 | 0.02 | 37 | 1011.7 |
| 20260505171244 | 56 | 312 | 4.0 | 5.0 | 0.00 | 0.02 | 0.02 | 38 | 1011.5 |
| 20260505170740 | 56 | 324 | 0.0 | 1.0 | 0.00 | 0.02 | 0.02 | 39 | 1011.8 |
| 20260505170238 | 56 | 291 | 5.0 | 6.0 | 0.00 | 0.02 | 0.02 | 41 | 1011.8 |
| 20260505165733 | 55 | 234 | 4.0 | 5.0 | 0.00 | 0.02 | 0.02 | 39 | 1011.6 |
| 20260505165229 | 56 | 335 | 4.0 | 5.0 | 0.00 | 0.02 | 0.02 | 38 | 1011.8 |
| 20260505164724 | 55 | 330 | 2.0 | 2.0 | 0.00 | 0.02 | 0.02 | 39 | 1011.8 |
| 20260505164222 | 55 | 332 | 1.0 | 1.0 | 0.00 | 0.02 | 0.02 | 43 | 1011.7 |
| 20260505163720 | 55 | 283 | 2.0 | 2.0 | 0.00 | 0.02 | 0.02 | 41 | 1011.8 |
| 20260505163218 | 55 | 332 | 1.0 | 2.0 | 0.00 | 0.02 | 0.02 | 40 | 1011.9 |
| 20260505162715 | 55 | 311 | 3.0 | 3.0 | 0.00 | 0.02 | 0.02 | 41 | 1011.9 |
| 20260505162212 | 55 | 299 | 3.0 | 5.0 | 0.00 | 0.02 | 0.02 | 39 | 1011.5 |
| 20260505161709 | 55 | 320 | 2.0 | 2.0 | 0.00 | 0.02 | 0.02 | 41 | 1011.8 |
| 20260505161207 | 55 | 276 | 2.0 | 2.0 | 0.00 | 0.02 | 0.02 | 41 | 1011.7 |
| 20260505160704 | 55 | 251 | 4.0 | 5.0 | 0.00 | 0.02 | 0.02 | 43 | 1012.0 |
| 20260505160202 | 54 | 339 | 4.0 | 6.0 | 0.00 | 0.02 | 0.02 | 40 | 1011.6 |
| 20260505153141 | 54 | 280 | 3.0 | 5.0 | 0.00 | 0.02 | 0.02 | 45 | 1011.7 |
| 20260505152637 | 53 | 286 | 2.0 | 2.0 | 0.00 | 0.02 | 0.02 | 43 | 1011.8 |
| 20260505152133 | 53 | 303 | 2.0 | 2.0 | 0.00 | 0.02 | 0.02 | 47 | 1011.8 |
| 20260505151628 | 52 | 290 | 3.0 | 3.0 | 0.00 | 0.02 | 0.02 | 48 | 1011.6 |
| 20260505151126 | 52 | 311 | 2.0 | 3.0 | 0.00 | 0.02 | 0.02 | 44 | 1011.7 |
| 20260505150622 | 52 | 297 | 1.0 | 1.0 | 0.00 | 0.02 | 0.02 | 44 | 1011.7 |
| 20260505150119 | 52 | 307 | 1.0 | 1.0 | 0.00 | 0.02 | 0.02 | 45 | 1011.8 |
| 20260505140548 | 50 | 318 | 0.0 | 0.0 | 0.00 | 0.02 | 0.02 | 53 | 1011.5 |
| 20260505125001 | 45 | 318 | 0.0 | 0.0 | 0.00 | 0.02 | 0.02 | 89 | 1010.3 |
| 20260505124458 | 44 | 318 | 0.0 | 0.0 | 0.00 | 0.02 | 0.02 | 93 | 1010.2 |
| 20260505123954 | 44 | 318 | 0.0 | 0.0 | 0.00 | 0.02 | 0.02 | 96 | 1010.1 |
| 20260505123451 | 44 | 318 | 0.0 | 0.0 | 0.00 | 0.02 | 0.02 | 97 | 1009.9 |
| 20260505122947 | 43 | 318 | 0.0 | 0.0 | 0.00 | 0.02 | 0.02 | 97 | 1010.2 |
| 20260505122444 | 43 | 318 | 0.0 | 0.0 | 0.00 | 0.02 | 0.02 | 98 | 1010.5 |
| 20260505121941 | 43 | 318 | 0.0 | 0.0 | 0.00 | 0.02 | 0.02 | 98 | 1010.4 |
| 20260505121438 | 43 | 318 | 0.0 | 0.0 | 0.00 | 0.02 | 0.02 | 98 | 1010.5 |
| 20260505120933 | 42 | 318 | 0.0 | 0.0 | 0.00 | 0.02 | 0.02 | 98 | 1010.6 |
| 20260505120430 | 42 | 318 | 0.0 | 0.0 | 0.00 | 0.02 | 0.02 | 97 | 1010.5 |
| 20260505115929 | 42 | 318 | 0.0 | 0.0 | 0.00 | 0.02 | 0.02 | 97 | 1010.3 |
| 20260505115426 | 42 | 318 | 0.0 | 0.0 | 0.00 | 0.02 | 0.02 | 97 | 1010.4 |
| 20260505114924 | 42 | 318 | 0.0 | 0.0 | 0.00 | 0.02 | 0.02 | 97 | 1010.3 |
| 20260505114420 | 42 | 318 | 0.0 | 0.0 | 0.00 | 0.02 | 0.02 | 97 | 1010.5 |
| 20260505113916 | 42 | 318 | 0.0 | 0.0 | 0.00 | 0.02 | 0.02 | 96 | 1010.3 |
| 20260505113413 | 42 | 318 | 0.0 | 0.0 | 0.00 | 0.02 | 0.02 | 96 | 1010.3 |
| 20260505112909 | 42 | 318 | 0.0 | 0.0 | 0.00 | 0.02 | 0.02 | 96 | 1010.4 |
| 20260505112407 | 42 | 318 | 0.0 | 0.0 | 0.00 | 0.02 | 0.02 | 95 | 1010.4 |
| 20260505111903 | 42 | 318 | 0.0 | 0.0 | 0.00 | 0.02 | 0.02 | 95 | 1010.4 |
| 20260505111357 | 42 | 318 | 0.0 | 0.0 | 0.00 | 0.02 | 0.02 | 94 | 1010.3 |
| 20260505110854 | 42 | 318 | 0.0 | 0.0 | 0.00 | 0.02 | 0.02 | 93 | 1010.1 |
| 20260505110351 | 42 | 318 | 0.0 | 0.0 | 0.00 | 0.02 | 0.02 | 93 | 1010.2 |
| 20260505101821 | 43 | 318 | 0.0 | 0.0 | 0.00 | 0.02 | 0.02 | 81 | 1009.6 |
| 20260505101317 | 43 | 318 | 0.0 | 0.0 | 0.00 | 0.02 | 0.02 | 83 | 1009.4 |
| 20260505100813 | 44 | 318 | 0.0 | 0.0 | 0.00 | 0.02 | 0.02 | 83 | 1009.2 |
| 20260505100310 | 44 | 318 | 0.0 | 0.0 | 0.00 | 0.02 | 0.02 | 84 | 1009.1 |
| 20260505095805 | 44 | 318 | 0.0 | 0.0 | 0.00 | 0.02 | 0.02 | 82 | 1009.4 |
| 20260505095304 | 44 | 318 | 0.0 | 0.0 | 0.00 | 0.02 | 0.02 | 80 | 1009.3 |
| 20260505094758 | 44 | 318 | 0.0 | 0.0 | 0.00 | 0.02 | 0.02 | 83 | 1009.2 |
| 20260505094256 | 44 | 318 | 0.0 | 0.0 | 0.00 | 0.02 | 0.02 | 86 | 1009.2 |
| 20260505093751 | 44 | 318 | 0.0 | 0.0 | 0.00 | 0.02 | 0.02 | 88 | 1009.2 |
| 20260505093249 | 44 | 318 | 0.0 | 0.0 | 0.00 | 0.02 | 0.02 | 88 | 1009.1 |
| 20260505092746 | 44 | 318 | 0.0 | 0.0 | 0.00 | 0.02 | 0.02 | 88 | 1008.9 |
| 20260505092244 | 45 | 318 | 0.0 | 0.0 | 0.00 | 0.02 | 0.02 | 87 | 1008.6 |
| 20260505091741 | 45 | 318 | 0.0 | 0.0 | 0.00 | 0.02 | 0.02 | 85 | 1008.6 |
| 20260505091239 | 45 | 318 | 0.0 | 0.0 | 0.00 | 0.02 | 0.02 | 82 | 1008.3 |
| 20260505090737 | 45 | 318 | 0.0 | 0.0 | 0.00 | 0.02 | 0.02 | 81 | 1008.4 |
| 20260505090235 | 45 | 318 | 0.0 | 0.0 | 0.00 | 0.02 | 0.02 | 77 | 1008.2 |
| 20260505085732 | 45 | 318 | 0.0 | 0.0 | 0.00 | 0.02 | 0.02 | 81 | 1008.0 |
| 20260505085230 | 45 | 318 | 0.0 | 0.0 | 0.00 | 0.02 | 0.02 | 81 | 1007.8 |
| 20260505084727 | 45 | 318 | 0.0 | 0.0 | 0.00 | 0.02 | 0.02 | 83 | 1007.9 |
| 20260505084226 | 44 | 318 | 0.0 | 0.0 | 0.00 | 0.02 | 0.02 | 88 | 1007.9 |
| 20260505083723 | 45 | 318 | 0.0 | 0.0 | 0.00 | 0.02 | 0.02 | 91 | 1007.9 |
| 20260505083219 | 45 | 318 | 0.0 | 0.0 | 0.00 | 0.02 | 0.02 | 92 | 1007.4 |
| 20260505082715 | 46 | 318 | 0.0 | 0.0 | 0.00 | 0.02 | 0.02 | 92 | 1007.1 |
| 20260505082213 | 47 | 318 | 1.0 | 2.0 | 0.00 | 0.02 | 0.02 | 90 | 1007.1 |
| 20260505081708 | 47 | 318 | 0.0 | 0.0 | 0.00 | 0.02 | 0.02 | 85 | 1006.9 |
| 20260505081206 | 47 | 318 | 0.0 | 1.0 | 0.00 | 0.02 | 0.02 | 79 | 1007.2 |
| 20260505080703 | 46 | 318 | 0.0 | 1.0 | 0.00 | 0.02 | 0.02 | 78 | 1008.0 |
| 20260505080159 | 46 | 318 | 1.0 | 1.0 | 0.00 | 0.02 | 0.02 | 83 | 1008.1 |
| 20260505075655 | 46 | 318 | 0.0 | 0.0 | 0.00 | 0.02 | 0.02 | 91 | 1007.1 |
| 20260505075152 | 46 | 318 | 1.0 | 1.0 | 0.00 | 0.02 | 0.02 | 93 | 1007.1 |
| 20260505074649 | 47 | 318 | 0.0 | 0.0 | 0.00 | 0.02 | 0.02 | 93 | 1007.0 |
| 20260505074145 | 47 | 318 | 0.0 | 0.0 | 0.07 | 0.02 | 0.02 | 92 | 1006.9 |
| 20260505073643 | 47 | 318 | 0.0 | 0.0 | 0.07 | 0.02 | 0.02 | 90 | 1006.5 |
| 20260505073141 | 48 | 318 | 1.0 | 2.0 | 0.00 | 0.01 | 0.01 | 87 | 1006.8 |
| 20260505072636 | 47 | 318 | 0.0 | 1.0 | 0.00 | 0.01 | 0.01 | 79 | 1007.0 |
| 20260505072133 | 47 | 318 | 0.0 | 0.0 | 0.00 | 0.01 | 0.01 | 86 | 1007.3 |
| 20260505071629 | 47 | 318 | 0.0 | 0.0 | 0.00 | 0.01 | 0.01 | 89 | 1007.9 |
| 20260505071127 | 46 | 318 | 0.0 | 0.0 | 0.00 | 0.01 | 0.01 | 90 | 1008.2 |
| 20260505070624 | 47 | 318 | 1.0 | 1.0 | 0.00 | 0.01 | 0.01 | 90 | 1008.4 |
| 20260505070120 | 47 | 318 | 0.0 | 0.0 | 0.00 | 0.01 | 0.01 | 88 | 1008.0 |
| 20260505065616 | 47 | 318 | 0.0 | 0.0 | 0.00 | 0.01 | 0.01 | 86 | 1008.0 |
| 20260505065113 | 47 | 318 | 0.0 | 1.0 | 0.00 | 0.01 | 0.01 | 82 | 1008.1 |
| 20260505064610 | 47 | 318 | 0.0 | 1.0 | 0.00 | 0.01 | 0.01 | 82 | 1008.4 |
| 20260505064109 | 46 | 318 | 1.0 | 1.0 | 0.00 | 0.01 | 0.01 | 80 | 1008.7 |
| 20260505063605 | 47 | 318 | 1.0 | 1.0 | 0.00 | 0.01 | 0.01 | 82 | 1008.9 |
| 20260505063101 | 48 | 317 | 0.0 | 1.0 | 0.05 | 0.01 | 0.01 | 77 | 1008.2 |
| 20260505062558 | 49 | 316 | 1.0 | 1.0 | 0.05 | 0.01 | 0.01 | 71 | 1008.1 |
| 20260505062055 | 50 | 315 | 0.0 | 0.0 | 0.00 | 0.00 | 0.00 | 64 | 1007.8 |
| 20260505061552 | 50 | 315 | 1.0 | 1.0 | 0.00 | 0.00 | 0.00 | 63 | 1007.7 |
| 20260505061050 | 50 | 317 | 1.0 | 1.0 | 0.00 | 0.00 | 0.00 | 60 | 1007.2 |
| 20260505060547 | 50 | 317 | 1.0 | 1.0 | 0.00 | 0.00 | 0.00 | 63 | 1007.8 |
| 20260505060044 | 50 | 317 | 1.0 | 1.0 | 0.00 | 0.00 | 0.00 | 60 | 1008.1 |
| 20260505055539 | 50 | 317 | 0.0 | 0.0 | 0.00 | 0.00 | 0.00 | 61 | 1007.9 |
| 20260505055036 | 51 | 317 | 1.0 | 2.0 | 0.00 | 0.00 | 0.00 | 61 | 1008.3 |
| 20260505054533 | 51 | 317 | 2.0 | 2.0 | 0.00 | 0.00 | 0.00 | 61 | 1008.3 |
| 20260505054032 | 50 | 317 | 3.0 | 3.0 | 0.00 | 0.00 | 0.00 | 60 | 1008.0 |
| 20260505053528 | 50 | 316 | 2.0 | 2.0 | 0.00 | 0.00 | 0.00 | 61 | 1007.7 |
| 20260505053025 | 50 | 316 | 0.0 | 0.0 | 0.00 | 0.00 | 0.00 | 63 | 1007.1 |
| 20260505052522 | 50 | 315 | 0.0 | 1.0 | 0.00 | 0.00 | 0.00 | 65 | 1007.4 |
| 20260505052020 | 50 | 312 | 2.0 | 2.0 | 0.00 | 0.00 | 0.00 | 63 | 1007.9 |
| 20260505051516 | 50 | 313 | 1.0 | 1.0 | 0.00 | 0.00 | 0.00 | 65 | 1007.6 |
| 20260505051015 | 50 | 318 | 1.0 | 1.0 | 0.00 | 0.00 | 0.00 | 66 | 1007.0 |
| 20260505050512 | 51 | 314 | 1.0 | 2.0 | 0.00 | 0.00 | 0.00 | 60 | 1006.9 |
| 20260505041440 | 51 | 312 | 3.0 | 3.0 | 0.00 | 0.00 | 0.00 | 66 | 1006.6 |
| 20260505040937 | 51 | 313 | 1.0 | 1.0 | 0.00 | 0.00 | 0.00 | 66 | 1006.7 |
| 20260505040435 | 51 | 324 | 2.0 | 2.0 | 0.00 | 0.00 | 0.00 | 69 | 1006.7 |
| 20260505035931 | 51 | 328 | 5.0 | 7.0 | 0.00 | 0.00 | 0.00 | 66 | 1006.7 |
| 20260505035427 | 52 | 320 | 9.0 | 14.0 | 0.00 | 0.00 | 0.00 | 65 | 1007.0 |
| 20260505034925 | 53 | 317 | 3.0 | 3.0 | 0.00 | 0.00 | 0.00 | 58 | 1006.9 |
| 20260505034421 | 54 | 262 | 2.0 | 3.0 | 0.00 | 0.00 | 0.00 | 53 | 1007.3 |
| 20260505033918 | 55 | 318 | 3.0 | 3.0 | 0.00 | 0.00 | 0.00 | 50 | 1007.1 |
| 20260505033415 | 55 | 305 | 2.0 | 2.0 | 0.00 | 0.00 | 0.00 | 48 | 1007.4 |
| 20260505032913 | 56 | 305 | 6.0 | 7.0 | 0.00 | 0.00 | 0.00 | 45 | 1007.1 |
| 20260505032410 | 56 | 305 | 3.0 | 3.0 | 0.00 | 0.00 | 0.00 | 45 | 1006.6 |
| 20260505031906 | 56 | 307 | 2.0 | 2.0 | 0.00 | 0.00 | 0.00 | 45 | 1006.3 |
| 20260505031403 | 56 | 314 | 1.0 | 2.0 | 0.00 | 0.00 | 0.00 | 45 | 1006.3 |
| 20260505030900 | 56 | 292 | 2.0 | 2.0 | 0.00 | 0.00 | 0.00 | 44 | 1006.5 |
| 20260505030356 | 56 | 320 | 3.0 | 5.0 | 0.00 | 0.00 | 0.00 | 44 | 1006.3 |
| 20260505025851 | 56 | 304 | 3.0 | 5.0 | 0.00 | 0.00 | 0.00 | 43 | 1006.2 |
| 20260505025349 | 56 | 320 | 6.0 | 8.0 | 0.00 | 0.00 | 0.00 | 43 | 1005.8 |
| 20260505024848 | 56 | 324 | 3.0 | 5.0 | 0.00 | 0.00 | 0.00 | 43 | 1005.9 |
| 20260505024345 | 56 | 311 | 3.0 | 5.0 | 0.00 | 0.00 | 0.00 | 43 | 1005.6 |
| 20260505023842 | 57 | 328 | 2.0 | 2.0 | 0.00 | 0.00 | 0.00 | 44 | 1005.7 |
| 20260505023339 | 57 | 305 | 5.0 | 9.0 | 0.00 | 0.00 | 0.00 | 43 | 1005.8 |
| 20260505022836 | 57 | 327 | 2.0 | 5.0 | 0.00 | 0.00 | 0.00 | 43 | 1006.0 |
| 20260505022333 | 57 | 322 | 5.0 | 7.0 | 0.00 | 0.00 | 0.00 | 42 | 1006.0 |
| 20260505021831 | 58 | 334 | 4.0 | 5.0 | 0.00 | 0.00 | 0.00 | 42 | 1006.0 |
| 20260505021327 | 58 | 303 | 6.0 | 7.0 | 0.00 | 0.00 | 0.00 | 42 | 1005.5 |
| 20260505020823 | 58 | 304 | 5.0 | 7.0 | 0.00 | 0.00 | 0.00 | 42 | 1005.4 |
| 20260505020319 | 58 | 321 | 3.0 | 3.0 | 0.00 | 0.00 | 0.00 | 42 | 1005.4 |
| 20260505015816 | 58 | 308 | 4.0 | 8.0 | 0.00 | 0.00 | 0.00 | 42 | 1005.0 |
| 20260505015313 | 59 | 318 | 4.0 | 6.0 | 0.00 | 0.00 | 0.00 | 42 | 1005.2 |
| 20260505014810 | 59 | 319 | 3.0 | 3.0 | 0.00 | 0.00 | 0.00 | 41 | 1005.3 |
| 20260505014307 | 59 | 303 | 4.0 | 5.0 | 0.00 | 0.00 | 0.00 | 41 | 1005.4 |
| 20260505013803 | 59 | 308 | 3.0 | 3.0 | 0.00 | 0.00 | 0.00 | 41 | 1005.5 |
| 20260505013301 | 59 | 286 | 7.0 | 9.0 | 0.00 | 0.00 | 0.00 | 39 | 1004.9 |
| 20260505012759 | 60 | 311 | 2.0 | 3.0 | 0.00 | 0.00 | 0.00 | 40 | 1004.9 |
| 20260505012256 | 60 | 319 | 3.0 | 3.0 | 0.00 | 0.00 | 0.00 | 38 | 1004.8 |
| 20260505011752 | 60 | 327 | 3.0 | 3.0 | 0.00 | 0.00 | 0.00 | 38 | 1004.7 |
| 20260505011249 | 61 | 348 | 2.0 | 3.0 | 0.00 | 0.00 | 0.00 | 39 | 1004.5 |
| 20260505010745 | 61 | 343 | 6.0 | 8.0 | 0.00 | 0.00 | 0.00 | 38 | 1004.5 |
| 20260505010241 | 62 | 299 | 5.0 | 7.0 | 0.00 | 0.00 | 0.00 | 37 | 1004.2 |
| 20260505005737 | 62 | 358 | 5.0 | 6.0 | 0.00 | 0.00 | 0.00 | 36 | 1004.1 |
| 20260505005235 | 63 | 254 | 9.0 | 11.0 | 0.00 | 0.00 | 0.00 | 35 | 1003.6 |
| 20260505004732 | 64 | 317 | 11.0 | 17.0 | 0.00 | 0.00 | 0.00 | 34 | 1003.6 |
| 20260505004228 | 64 | 301 | 3.0 | 5.0 | 0.00 | 0.00 | 0.00 | 34 | 1003.6 |
| 20260505003725 | 65 | 316 | 2.0 | 3.0 | 0.00 | 0.00 | 0.00 | 35 | 1003.5 |
| 20260505003223 | 65 | 346 | 2.0 | 3.0 | 0.00 | 0.00 | 0.00 | 35 | 1003.4 |
| 20260505002719 | 66 | 295 | 5.0 | 7.0 | 0.00 | 0.00 | 0.00 | 33 | 1003.1 |
| 20260505002217 | 66 | 314 | 2.0 | 3.0 | 0.00 | 0.00 | 0.00 | 33 | 1003.0 |
| 20260505001714 | 67 | 300 | 2.0 | 3.0 | 0.00 | 0.00 | 0.00 | 33 | 1002.8 |
| 20260505001212 | 68 | 294 | 3.0 | 3.0 | 0.00 | 0.00 | 0.00 | 32 | 1002.7 |
| 20260505000708 | 68 | 285 | 6.0 | 7.0 | 0.00 | 0.00 | 0.00 | 31 | 1002.8 |
| 20260505000206 | 69 | 262 | 11.0 | 17.0 | 0.00 | 0.00 | 0.00 | 30 | 1002.4 |
| 20260504235703 | 70 | 315 | 7.0 | 10.0 | 0.00 | 0.00 | 0.00 | 30 | 1002.5 |
| 20260504235159 | 71 | 340 | 3.0 | 3.0 | 0.00 | 0.00 | 0.00 | 30 | 1002.3 |
| 20260504234656 | 71 | 313 | 1.0 | 2.0 | 0.00 | 0.00 | 0.00 | 31 | 1002.4 |
| 20260504234153 | 72 | 322 | 2.0 | 2.0 | 0.00 | 0.00 | 0.00 | 29 | 1002.3 |
| 20260504233649 | 72 | 325 | 3.0 | 5.0 | 0.00 | 0.00 | 0.00 | 30 | 1002.2 |
| 20260504233145 | 72 | 277 | 8.0 | 11.0 | 0.00 | 0.00 | 0.00 | 29 | 1002.4 |
| 20260504232643 | 73 | 328 | 2.0 | 2.0 | 0.00 | 0.00 | 0.00 | 30 | 1002.3 |
| 20260504232140 | 73 | 318 | 5.0 | 6.0 | 0.00 | 0.00 | 0.00 | 29 | 1002.0 |
| 20260504231636 | 74 | 332 | 5.0 | 7.0 | 0.00 | 0.00 | 0.00 | 28 | 1002.2 |
| 20260504231133 | 74 | 319 | 3.0 | 3.0 | 0.00 | 0.00 | 0.00 | 30 | 1001.9 |
| 20260504230629 | 74 | 316 | 4.0 | 5.0 | 0.00 | 0.00 | 0.00 | 29 | 1002.0 |
| 20260504230128 | 75 | 305 | 2.0 | 2.0 | 0.00 | 0.00 | 0.00 | 28 | 1001.9 |
| 20260504225626 | 76 | 284 | 7.0 | 8.0 | 0.00 | 0.00 | 0.00 | 28 | 1001.7 |
| 20260504225121 | 76 | 298 | 4.0 | 6.0 | 0.00 | 0.00 | 0.00 | 28 | 1001.8 |
| 20260504224618 | 76 | 309 | 2.0 | 2.0 | 0.00 | 0.00 | 0.00 | 28 | 1001.4 |
| 20260504224115 | 76 | 341 | 2.0 | 3.0 | 0.00 | 0.00 | 0.00 | 30 | 1001.2 |
| 20260504223612 | 76 | 299 | 3.0 | 6.0 | 0.00 | 0.00 | 0.00 | 26 | 1001.3 |
| 20260504223108 | 77 | 267 | 3.0 | 5.0 | 0.00 | 0.00 | 0.00 | 29 | 1001.1 |
| 20260504222605 | 77 | 300 | 3.0 | 3.0 | 0.00 | 0.00 | 0.00 | 26 | 1000.9 |
| 20260504222103 | 77 | 319 | 1.0 | 1.0 | 0.00 | 0.00 | 0.00 | 29 | 1001.0 |
| 20260504221600 | 77 | 310 | 2.0 | 3.0 | 0.00 | 0.00 | 0.00 | 27 | 1001.0 |
| 20260504221056 | 77 | 309 | 9.0 | 10.0 | 0.00 | 0.00 | 0.00 | 26 | 1000.9 |
| 20260504220553 | 78 | 351 | 8.0 | 10.0 | 0.00 | 0.00 | 0.00 | 26 | 1000.9 |
| 20260504220050 | 78 | 326 | 2.0 | 2.0 | 0.00 | 0.00 | 0.00 | 28 | 1000.7 |
| 20260504215546 | 78 | 282 | 3.0 | 6.0 | 0.00 | 0.00 | 0.00 | 30 | 1000.6 |
| 20260504215044 | 79 | 296 | 7.0 | 8.0 | 0.00 | 0.00 | 0.00 | 26 | 1000.5 |
| 20260504214539 | 79 | 286 | 3.0 | 3.0 | 0.00 | 0.00 | 0.00 | 27 | 1000.2 |
| 20260504214036 | 79 | 326 | 3.0 | 5.0 | 0.00 | 0.00 | 0.00 | 28 | 1000.2 |
| 20260504213533 | 79 | 316 | 2.0 | 2.0 | 0.00 | 0.00 | 0.00 | 28 | 1000.2 |